User: anonymous   Login
Location: Starry Hill Observatory
(46.8582°N, 122.3590°W)
Time: 03:35:55
(UTC-07:00)
Language:

Cosmos 1300 Rocket - Orbit

View from above orbital plane
View from above orbital plane
View from above satellite
View from above satellite

Ground track
Ground track

The orbit data is extracted from the following two-line orbital elements,

1 12786U 81082B   17174.87301259 +.00000067 +00000-0 +50545-5 0  9995
2 12786 082.4887 321.3990 0016366 229.6540 130.3247 14.84685587914707
Epoch (UTC): 23 June 2017 20:57:08
Eccentricity: 0.0016366
inclination: 82.4887°
perigee height: 603 km
apogee height: 626 km
right ascension of ascending node: 321.3990°
argument of perigee: 229.6540°
revolutions per day: 14.84685587
mean anomaly at epoch: 130.3247°
orbit number at epoch: 91470

The dashed part of the orbit path shows where the satellite is in the earth's shadow,  

DLR